• In Portugal
  • List of Countries
  • For 7 days
  • Water Temperature
  • Satellite Maps
  • Weather Map
  • Weather Widgets
  • user-avatar
    Login

    Hourly Weather Maan

    Today, 20 January, Saturday

    Time Temperature Precipitation Wind Pressure Humidity
    00:00 0°C° 0 mm 4 mps 636 mmHg 79%
    01:00 0°C° 0 mm 4 mps 637 mmHg 80%
    02:00 +1°C° 0 mm 3 mps 636 mmHg 83%
    03:00 0°C° 0 mm 3 mps 637 mmHg 84%
    04:00 +1°C° 0 mm 2 mps 637 mmHg 85%
    05:00 +1°C° 0 mm 2 mps 637 mmHg 86%
    06:00 +2°C° 0 mm 1 mps 637 mmHg 83%
    07:00 +2°C° 0 mm 1 mps 638 mmHg 80%
    08:00 +3°C° 0 mm 1 mps 638 mmHg 77%
    09:00 +5°C° 0 mm 1 mps 638 mmHg 68%
    10:00 +6°C° 0 mm 1 mps 639 mmHg 59%
    11:00 +7°C° 0 mm 1 mps 639 mmHg 50%
    12:00 +8°C° 0 mm 1 mps 639 mmHg 45%
    13:00 +9°C° 0 mm 1 mps 639 mmHg 41%
    14:00 +11°C° 0 mm 1 mps 639 mmHg 36%
    15:00 +9°C° 0 mm 2 mps 639 mmHg 37%
    16:00 +9°C° 0 mm 2 mps 639 mmHg 39%
    17:00 +8°C° 0 mm 2 mps 639 mmHg 40%
    18:00 +8°C° 0 mm 2 mps 639 mmHg 42%
    19:00 +7°C° 0 mm 2 mps 639 mmHg 45%
    20:00 +6°C° 0 mm 2 mps 638 mmHg 47%
    21:00 +6°C° 0 mm 2 mps 638 mmHg 47%
    22:00 +5°C° 0 mm 2 mps 638 mmHg 47%
    23:00 +5°C° 0 mm 2 mps 638 mmHg 48%

    Tomorrow, 21 January, Sunday

    Time Temperature Precipitation Wind Pressure Humidity
    00:00 +5°C° 0 mm 2 mps 638 mmHg 48%
    01:00 +4°C° 0 mm 2 mps 638 mmHg 48%
    02:00 +4°C° 0 mm 2 mps 638 mmHg 48%
    03:00 +4°C° 0 mm 2 mps 637 mmHg 48%
    04:00 +3°C° 0 mm 2 mps 637 mmHg 49%
    05:00 +3°C° 0 mm 2 mps 637 mmHg 49%
    06:00 +3°C° 0 mm 3 mps 637 mmHg 46%
    07:00 +3°C° 0 mm 3 mps 637 mmHg 43%
    08:00 +4°C° 0 mm 3 mps 637 mmHg 41%
    09:00 +7°C° 0 mm 3 mps 638 mmHg 34%
    10:00 +9°C° 0 mm 3 mps 638 mmHg 28%
    11:00 +11°C° 0 mm 3 mps 639 mmHg 21%
    12:00 +12°C° 0 mm 3 mps 638 mmHg 19%
    13:00 +13°C° 0 mm 3 mps 638 mmHg 17%
    14:00 +15°C° 0 mm 2 mps 638 mmHg 15%
    15:00 +14°C° 0 mm 2 mps 637 mmHg 16%
    16:00 +13°C° 0 mm 2 mps 637 mmHg 18%
    17:00 +12°C° 0 mm 2 mps 636 mmHg 19%
    18:00 +10°C° 0 mm 2 mps 636 mmHg 20%
    19:00 +9°C° 0 mm 2 mps 636 mmHg 21%
    20:00 +9°C° 0 mm 2 mps 635 mmHg 22%
    21:00 +8°C° 0 mm 2 mps 635 mmHg 22%
    22:00 +8°C° 0 mm 2 mps 635 mmHg 23%
    23:00 +7°C° 0 mm 2 mps 635 mmHg 23%

    Day after tomorrow, 22 January, Monday

    Time Temperature Precipitation Wind Pressure Humidity
    00:00 +7°C° 0 mm 2 mps 634 mmHg 24%
    01:00 +7°C° 0 mm 2 mps 634 mmHg 24%
    02:00 +6°C° 0 mm 2 mps 634 mmHg 25%
    03:00 +6°C° 0 mm 2 mps 633 mmHg 26%
    04:00 +6°C° 0 mm 2 mps 633 mmHg 27%
    05:00 +5°C° 0 mm 2 mps 632 mmHg 28%
    06:00 +6°C° 0 mm 2 mps 633 mmHg 29%
    07:00 +7°C° 0 mm 2 mps 633 mmHg 29%
    08:00 +7°C° 0 mm 2 mps 634 mmHg 30%
    09:00 +9°C° 0 mm 3 mps 634 mmHg 27%
    10:00 +11°C° 0 mm 4 mps 635 mmHg 24%
    11:00 +12°C° 0 mm 5 mps 635 mmHg 21%
    12:00 +13°C° 0 mm 5 mps 635 mmHg 20%
    13:00 +13°C° 0 mm 6 mps 634 mmHg 19%
    14:00 +14°C° 0 mm 6 mps 634 mmHg 17%
    15:00 +13°C° 0 mm 5 mps 634 mmHg 19%
    16:00 +12°C° 0 mm 5 mps 633 mmHg 21%
    17:00 +11°C° 0 mm 4 mps 633 mmHg 22%
    18:00 +10°C° 0 mm 4 mps 633 mmHg 25%
    19:00 +9°C° 0 mm 3 mps 633 mmHg 27%
    20:00 +8°C° 0 mm 3 mps 633 mmHg 29%
    21:00 +7°C° 0 mm 3 mps 633 mmHg 30%
    22:00 +7°C° 0 mm 3 mps 633 mmHg 32%
    23:00 +5°C° 0 mm 4 mps 633 mmHg 33%

    23 January, Tuesday

    Time Temperature Precipitation Wind Pressure Humidity
    00:00 +5°C° 0 mm 4 mps 632 mmHg 36%
    01:00 +4°C° 0 mm 4 mps 632 mmHg 40%
    02:00 +3°C° 0 mm 5 mps 632 mmHg 44%
    03:00 +3°C° 0 mm 5 mps 632 mmHg 50%
    04:00 +2°C° 0 mm 5 mps 632 mmHg 56%
    05:00 +2°C° 0 mm 5 mps 632 mmHg 62%
    06:00 +2°C° 0 mm 5 mps 632 mmHg 65%
    07:00 +3°C° 0 mm 6 mps 633 mmHg 67%
    08:00 +3°C° 0 mm 6 mps 633 mmHg 70%
    09:00 +4°C° 0 mm 7 mps 633 mmHg 66%
    10:00 +5°C° 0 mm 7 mps 634 mmHg 62%
    11:00 +6°C° 0 mm 8 mps 634 mmHg 59%
    12:00 +6°C° 0 mm 8 mps 634 mmHg 55%
    13:00 +7°C° 0 mm 9 mps 633 mmHg 52%
    14:00 +7°C° 0 mm 9 mps 633 mmHg 49%
    15:00 +6°C° 0 mm 8 mps 633 mmHg 50%
    16:00 +6°C° 0 mm 7 mps 633 mmHg 51%
    17:00 +5°C° 0 mm 6 mps 633 mmHg 52%
    18:00 +5°C° 0 mm 5 mps 634 mmHg 57%
    19:00 +5°C° 0 mm 4 mps 634 mmHg 61%
    20:00 +4°C° 0 mm 4 mps 634 mmHg 66%
    21:00 +3°C° 0 mm 3 mps 634 mmHg 69%
    22:00 +3°C° 0 mm 3 mps 634 mmHg 73%
    23:00 +2°C° 0 mm 3 mps 634 mmHg 76%

    24 January, Wednesday

    Time Temperature Precipitation Wind Pressure Humidity
    00:00 +3°C° 0 mm 2 mps 634 mmHg 78%
    01:00 +3°C° 0 mm 2 mps 634 mmHg 80%
    02:00 +3°C° 0 mm 2 mps 634 mmHg 81%
    03:00 +3°C° 0 mm 2 mps 634 mmHg 83%
    04:00 +2°C° 0 mm 2 mps 634 mmHg 84%
    05:00 +2°C° 0 mm 2 mps 634 mmHg 85%
    06:00 +2°C° 0 mm 2 mps 634 mmHg 82%
    07:00 +2°C° 0 mm 2 mps 635 mmHg 79%
    08:00 +3°C° 0 mm 2 mps 635 mmHg 77%
    09:00 +4°C° 0 mm 2 mps 636 mmHg 68%
    10:00 +5°C° 0 mm 2 mps 636 mmHg 60%
    11:00 +5°C° 0 mm 3 mps 636 mmHg 52%
    12:00 +7°C° 0 mm 3 mps 636 mmHg 48%
    13:00 +8°C° 0 mm 3 mps 636 mmHg 44%
    14:00 +8°C° 0 mm 3 mps 635 mmHg 40%
    15:00 +8°C° 0 mm 3 mps 635 mmHg 41%
    16:00 +7°C° 0 mm 3 mps 635 mmHg 42%
    17:00 +7°C° 0 mm 3 mps 635 mmHg 42%
    18:00 +6°C° 0 mm 2 mps 635 mmHg 45%
    19:00 +5°C° 0 mm 2 mps 635 mmHg 48%
    20:00 +4°C° 0 mm 2 mps 635 mmHg 51%
    21:00 +5°C° 0 mm 1 mps 635 mmHg 54%
    22:00 +4°C° 0 mm 1 mps 635 mmHg 57%
    23:00 +4°C° 0 mm 1 mps 634 mmHg 59%

    25 January, Thursday

    Time Temperature Precipitation Wind Pressure Humidity
    00:00 +3°C° 0 mm 1 mps 634 mmHg 61%
    01:00 +3°C° 0 mm 1 mps 634 mmHg 63%
    02:00 +3°C° 0 mm 1 mps 634 mmHg 65%
    03:00 +2°C° 0 mm 1 mps 633 mmHg 67%
    04:00 +1°C° 0 mm 0 mps 633 mmHg 69%
    05:00 +1°C° 0 mm 0 mps 633 mmHg 70%
    06:00 +1°C° 0 mm 0 mps 634 mmHg 66%
    07:00 +2°C° 0 mm 0 mps 634 mmHg 63%
    08:00 +4°C° 0 mm 1 mps 634 mmHg 59%
    09:00 +5°C° 0 mm 1 mps 634 mmHg 54%
    10:00 +6°C° 0 mm 1 mps 635 mmHg 49%
    11:00 +6°C° 0 mm 2 mps 635 mmHg 44%
    12:00 +7°C° 0 mm 2 mps 634 mmHg 42%
    13:00 +8°C° 0 mm 3 mps 634 mmHg 39%
    14:00 +7°C° 0 mm 4 mps 634 mmHg 37%
    15:00 +7°C° 0 mm 4 mps 634 mmHg 40%
    16:00 +6°C° 0 mm 4 mps 634 mmHg 43%
    17:00 +5°C° 0 mm 4 mps 633 mmHg 46%
    18:00 +5°C° 0 mm 4 mps 633 mmHg 49%
    19:00 +4°C° 0 mm 3 mps 634 mmHg 52%
    20:00 +3°C° 0 mm 3 mps 634 mmHg 55%
    21:00 +3°C° 0 mm 3 mps 634 mmHg 58%
    22:00 +3°C° 0 mm 2 mps 633 mmHg 60%
    23:00 +3°C° 0 mm 2 mps 633 mmHg 63%
    Show more